Location: Vammala
(61.3333°N, 22.9000°E)
Time: 10:08:52
(UTC+00:00)

Daily predictions for brighter satellites

Satellite Brightness Start Highest point End
(mag) Time Altitude Azimuth Time Altitude Azimuth Time Altitude Azimuth
NOSS 3-1 (A) 3.8 13:59:31 10° W 14:05:54 76° N 14:13:33 10° E
Cosmos 1400 Rocket 3.0 14:05:11 10° S 14:09:09 56° E 14:13:05 10° NNE
NOSS 3-4 (A) 4.4 14:03:37 10° SSW 14:09:10 37° SE 14:15:07 10° ENE
Lacrosse 4 Rocket 2.3 14:05:29 10° WNW 14:09:13 32° N 14:13:02 10° ENE
NOSS 3-4 (C) 4.4 14:03:44 10° SSW 14:09:17 37° SE 14:15:13 10° ENE
CZ-4B R/B 2.8 14:07:17 10° NE 14:10:12 23° E 14:13:04 10° SSE
Cosmos 2346 Rocket 4.5 14:04:39 10° S 14:10:43 76° E 14:16:47 10° NNE
Meteor 1-11 Rocket 4.0 14:07:07 10° NNW 14:13:00 54° ENE 14:18:51 10° SE
CZ-4B R/B 3.3 14:09:32 10° S 14:13:08 60° WSW 14:16:54 10° NNW
Cosmos 1328 Rocket 3.8 14:09:24 10° SSW 14:13:42 69° WNW 14:18:03 10° NNE
Cosmos 1602 3.7 14:09:50 10° NNW 14:13:44 88° ENE 14:17:40 10° SSE
Cosmos 1441 Rocket 4.4 14:11:53 10° N 14:14:53 21° NE 14:17:51 10° ESE
PSLV R/B 3.9 14:11:38 10° SSE 14:15:33 88° WSW 14:19:37 10° NNW
Cosmos 1992 Rocket 4.0 14:10:43 10° NNW 14:16:00 80° NE 14:21:15 10° SE
UNK 4.3 14:11:27 10° NNE 14:16:04 58° WNW 14:20:40 10° SW
SL-08 R/B 3.5 14:12:08 10° NNE 14:17:06 70° ESE 14:21:57 10° S
Envisat 3.9 14:13:09 10° ESE 14:17:20 26° NE 14:21:32 10° N
NOSS 2-2 (C) 3.9 14:13:55 10° SW 14:17:42 57° SE 14:22:27 10° ENE
Cosmos 2237 4.5 14:13:19 10° SSW 14:18:56 59° ESE 14:24:35 10° NE
SMAP 3.7 14:15:07 10° ESE 14:19:19 35° NE 14:23:33 10° N
CZ-4B DEB 4.3 14:13:59 10° SSE 14:19:28 89° WSW 14:25:01 10° NNW
Meteor 1-28 Rocket 3.9 14:17:56 10° NNE 14:21:27 36° E 14:24:59 10° SSE
FENGYUN 3A 3.7 14:16:29 10° SSE 14:21:55 81° ENE 14:27:21 10° NNW
Elektron 3 4.0 14:22:38 10° W 14:25:30 83° S 14:29:31 10° E
H-2A R/B 3.6 14:22:40 10° ESE 14:25:49 27° ENE 14:28:59 10° N
Genesis I 3.8 14:22:10 10° WNW 14:26:05 63° SW 14:29:56 10° SE
Cosmos 1151 Rocket 3.6 14:22:20 10° SSW 14:26:39 58° WNW 14:30:59 10° N
ERS-2 3.7 14:23:50 10° N 14:27:05 30° WNW 14:30:20 10° WSW
Meteor 1-26 Rocket 4.3 14:23:29 10° S 14:29:09 69° ESE 14:34:42 10° NNE
Meteor 1-5 Rocket 4.1 14:23:52 10° NNW 14:29:29 71° ENE 14:34:54 10° SSE
COSMOS 2428 3.5 14:24:50 10° S 14:29:56 35° ESE 14:35:03 10° NE
METEOR-M 4.2 14:25:08 10° SSE 14:30:29 88° WSW 14:35:54 10° NNW
ALOS 2.3 14:25:57 10° SSE 14:30:39 87° ENE 14:35:22 10° NNW
SAR-Lupe-4 3.5 14:27:53 10° NNE 14:31:31 83° ESE 14:35:07 10° SSW
Cosmos 1666 3.5 14:28:56 10° N 14:32:15 29° ENE 14:35:34 10° ESE
Cosmos 292 Rocket 3.8 14:30:39 10° NNW 14:35:33 73° NE 14:40:26 10° SE
COSMOS 2455 2.9 14:30:15 10° SW 14:36:18 89° NW 14:42:08 11° NE
Tsikada Rocket 4.1 14:31:41 10° SSW 14:38:06 89° W 14:44:30 10° NNE
Cosmos 2344 4.0 14:30:17 10° W 14:38:24 80° N 14:49:11 10° E
NOSS 2-2 (E) 3.7 14:34:28 10° SW 14:38:27 76° SSE 14:43:18 11° ENE
H-2A R/B 3.8 14:39:26 10° NE 14:40:49 12° NNE 14:42:28 10° N
NOSS 2-3 (C) 4.4 14:35:51 10° W 14:41:11 73° N 14:48:06 10° E
Cosmos 2278 Rocket 3.0 14:36:57 10° NW 14:42:31 58° WSW 14:48:03 10° SSE
CZ-4B R/B 3.3 14:37:40 10° SSE 14:43:05 87° WSW 14:48:39 10° NNW
CZ-4C R/B 2.8 14:40:35 10° NNE 14:43:47 81° WNW 14:46:57 10° SSW
Helios 1A Rocket 2.9 14:39:47 10° SSE 14:43:53 87° ENE 14:48:00 10° NNW
Cosmos 1606 3.2 14:41:24 10° SSW 14:45:10 61° WNW 14:49:01 10° N
Cosmos 494 Rocket 4.1 14:40:04 10° SSW 14:45:19 70° ESE 14:50:28 10° NE
Cosmos 1933 3.9 14:41:52 10° SSW 14:45:50 57° WNW 14:49:49 10° N
ATLAS 2AS CENTAUR R/B 3.3 14:38:33 10° SW 14:46:30 67° SE 14:53:44 12° ENE
NOAA 6 4.1 14:41:35 10° SSE 14:46:43 85° WSW 14:51:54 10° NNW
Landsat 5 3.3 14:43:15 10° NNE 14:47:13 82° ESE 14:51:19 10° SSW
Cosmos 1515 Rocket 4.2 14:43:08 10° SSW 14:47:24 55° WNW 14:51:42 10° N
Cosmos 2322 3.9 14:42:28 10° SSW 14:48:05 62° ESE 14:53:18 12° NE
Cosmos 1707 Rocket 3.8 14:44:45 10° S 14:49:05 51° E 14:53:27 10° NNE
Cosmos 2360 Rocket 2.2 14:44:03 10° SW 14:49:45 85° SE 14:55:06 12° NE
Cosmos 1867 3.7 14:44:33 10° WNW 14:50:05 86° SSW 14:55:34 10° ESE
ASTEX 1 3.8 14:45:36 10° N 14:50:32 65° WNW 14:55:24 10° SSW
NOSS 8 (E) 4.3 14:50:03 10° WSW 14:53:09 89° NNW 14:55:58 15° ENE
Okean O Rocket 1.8 14:48:51 10° SSE 14:53:12 79° WSW 14:57:35 10° NNW
Cosmos 2369 Rocket 2.4 14:47:49 10° NW 14:53:18 49° NNE 14:58:46 10° ESE
RESURS DK-1 3.2 14:50:11 10° S 14:53:57 34° ESE 14:56:51 15° ENE
Cosmos 1980 Rocket 3.0 14:51:06 10° W 14:56:28 40° NNW 15:01:14 13° NE
SeaSat 1 3.4 14:53:22 13° ENE 14:57:04 30° NNE 15:01:20 10° NW
Cosmos 2279 Rocket 4.3 14:51:19 10° NNW 14:57:35 75° W 15:03:50 10° S
IRS-1C Rocket 4.1 14:52:25 10° SE 14:57:40 68° ENE 15:02:55 10° NNW
Cosmos 1939 Rocket 4.4 14:57:34 15° NE 14:57:59 16° NE 15:00:19 10° N
Feng Yun 1-1 Rocket 4.2 14:53:00 10° SE 14:58:21 66° ENE 15:03:47 10° NNW
Cosmos 1656 Rocket 4.2 14:53:29 10° NW 14:58:33 37° NNE 15:03:21 11° E
Cosmos 1536 2.8 14:54:45 10° N 14:58:48 62° ENE 15:02:46 10° SSE
Ariane Rocket 4.2 14:57:38 12° E 15:00:48 20° NE 15:04:27 10° N
Cosmos 1908 Rocket 3.7 14:56:32 10° N 15:00:53 51° ENE 15:05:10 10° SE
YAOGAN 6 3.7 14:58:36 10° ESE 15:01:33 24° ENE 15:04:33 10° N
Cosmos 1763 Rocket 4.3 14:57:14 10° NNW 15:01:42 29° NNE 15:05:26 13° E
OPS 8737 4.2 14:59:27 10° W 15:02:27 62° N 15:04:23 19° ENE
Cosmos 2228 Rocket 3.7 14:59:21 10° SSW 15:03:53 58° WNW 15:08:27 10° N
Cosmos 1743 3.5 15:03:12 10° N 15:06:40 30° ENE 15:10:09 10° SE
SL-16 R/B 3.8 15:04:35 10° SE 15:07:51 16° E 15:09:17 14° E
SL-16 R/B 3.5 15:04:16 10° NNE 15:10:04 44° NW 15:15:51 10° WSW
H-2A R/B 3.0 15:06:39 10° N 15:10:35 44° WNW 15:14:29 10° SW
Lacrosse 5 rocket 2.9 15:08:36 10° SSW 15:12:00 24° SSE 15:14:37 13° ESE
Okean 1-7 4.4 15:09:28 10° SE 15:12:37 20° E 15:13:33 19° ENE
FengYun 1-2 T 4.5 15:07:31 10° SE 15:12:43 45° ENE 15:17:59 10° NNW
CORIOLIS 4.1 15:07:21 10° SSE 15:12:45 69° ENE 15:18:11 10° NNW
Meteor 2-6 Rocket 4.1 15:09:51 10° S 15:15:13 69° ESE 15:20:43 10° NNE
Cosmos 2237 Rocket 3.0 15:10:27 10° S 15:15:29 33° ESE 15:18:56 18° ENE
SL-4 R/B 4.0 15:13:36 10° SW 15:16:16 19° S 15:19:05 10° SE
Okean-O 2.7 15:12:25 10° SE 15:16:44 52° ENE 15:21:04 10° NNW
Cosmos 1689 Rocket 2.2 15:15:27 17° NNE 15:17:36 58° ESE 15:20:36 10° S
Cosmos 2322 Rocket 2.7 15:12:54 10° WSW 15:18:27 55° NW 15:23:02 15° NE
Aureole 3 Rocket 4.3 15:17:27 10° N 15:18:28 15° NNE 15:18:28 15° NNE
Cosmos 1943 Rocket 2.2 15:14:28 10° NW 15:20:08 65° NE 15:25:45 10° ESE
Cosmos 2333 Rocket 2.3 15:15:18 10° SSW 15:20:59 65° SE 15:25:25 17° NE
Aureole 1 Rocket 4.3 15:19:22 10° SE 15:20:55 15° ESE 15:20:55 15° ESE
Cosmos 1733 Rocket 3.6 15:17:20 10° NNW 15:21:40 61° W 15:26:00 10° S
COBE Rocket 4.4 15:18:29 14° NNE 15:21:58 33° E 15:26:13 10° SSE
YAOGAN 1 3.3 15:18:15 10° ESE 15:22:04 31° NE 15:25:54 10° N
Cosmos 2219 Rocket 2.3 15:17:44 10° SSW 15:23:19 66° SE 15:27:35 18° NE
Cosmos 1697 Rocket 3.7 15:18:37 10° WNW 15:23:40 32° N 15:27:09 17° NE
Aureole 2 Rocket 4.0 15:21:29 10° NNW 15:23:34 17° NNE 15:23:34 17° NNE
Cosmos 1500 3.8 15:20:20 10° NNW 15:24:04 57° W 15:27:46 10° S
Uosat 12 SS-18 rocket 4.5 15:19:11 10° WNW 15:24:39 80° SSW 15:29:13 10° SE
Cosmos 1269 Rocket 4.1 15:20:37 10° SW 15:25:57 82° NW 15:30:24 15° NNE
Nadezhda 4 Rocket 4.1 15:20:06 10° S 15:26:15 56° E 15:32:22 10° NNE
Cosmos 1812 2.8 15:23:09 10° S 15:26:56 54° E 15:29:48 16° NNE
Cosmos 1553 Rocket 4.3 15:21:42 10° N 15:27:49 47° ENE 15:33:58 10° SE
GENESIS II 4.4 15:24:20 10° WNW 15:28:27 60° NNE 15:30:51 23° E
SL-16 R/B 2.9 15:23:28 10° WSW 15:28:58 48° NNW 15:33:12 17° NE
Cosmos 1782 3.5 15:25:32 10° SSW 15:29:26 53° WNW 15:33:21 10° N
NOSS 2-2 (D) 3.6 15:26:21 10° WSW 15:30:25 83° NNW 15:33:35 23° ENE
Cosmos 921 Rocket 3.0 15:26:39 10° NNW 15:30:57 86° WSW 15:35:17 10° SSE
Cosmos 841 Rocket 4.3 15:26:45 10° NNW 15:31:21 30° NNE 15:33:30 22° ENE
NOSS 8 (H) 4.4 15:30:14 10° WSW 15:33:23 78° NNW 15:35:07 29° ENE
Cosmos 489 Rocket 4.4 15:31:13 10° NW 15:37:37 78° NE 15:44:00 10° SE
Cosmos 405 Rocket 3.3 15:34:46 10° N 15:38:06 30° ENE 15:38:17 30° ENE
Cosmos 2151 Rocket 4.3 15:36:26 10° N 15:40:25 31° ENE 15:42:23 22° ESE
CZ-4 R/B 1.6 15:37:12 10° SE 15:40:51 42° ENE 15:44:31 10° N
NOSS 3-1 (C) 3.9 15:34:40 10° WNW 15:41:29 86° SSW 15:49:33 10° ESE
Cosmos 1315 Rocket 3.6 15:38:38 10° SW 15:42:36 53° WNW 15:46:30 11° NNE
NOSS 0 Rocket 4.2 15:36:46 10° SSW 15:42:47 53° ESE 15:46:39 23° NE
CZ-4B R/B 2.2 15:39:38 12° N 15:42:48 53° WNW 15:46:13 10° SW
CSL-04 Rocket 3.8 15:38:08 10° SE 15:43:13 49° ENE 15:48:23 10° NNW
NOSS 2-3 (E) 4.4 15:38:32 10° WNW 15:44:09 82° NNE 15:49:52 17° ESE
Exosat Rocket 3.7 15:40:46 10° SSW 15:45:36 52° ESE 15:48:33 24° NE
AQUARIUS 4.4 15:42:23 10° S 15:46:54 72° WSW 15:51:26 10° NNW
Cosmos 1980 3.9 15:41:39 10° SSW 15:47:05 50° ESE 15:50:09 25° NE
Cosmos 2026 Rocket 4.3 15:42:07 10° SSE 15:47:43 41° E 15:53:23 10° NNE
Lacrosse 4 Rocket 1.8 15:44:43 10° NW 15:48:41 43° NNE 15:49:59 33° ENE
Cosmos 540 Rocket 4.2 15:44:40 10° NNW 15:49:16 32° NNE 15:50:37 28° ENE
Meteor 1-10 Rocket 4.3 15:43:54 10° SSW 15:49:31 84° WNW 15:55:16 10° NNE
Cosmos 2297 4.5 15:44:23 10° NW 15:49:58 55° WSW 15:55:30 10° SSE
Cosmos 1441 Rocket 3.3 15:47:28 10° NNW 15:51:20 79° WSW 15:55:07 10° S
USA 229 DEB 3.9 15:44:49 10° WNW 15:51:51 81° SSW 15:59:17 10° ESE
Cosmos 1975 2.9 15:48:02 10° N 15:51:57 50° ENE 15:55:51 10° SE
USA 229 3.9 15:44:55 10° WNW 15:51:58 81° SSW 15:59:22 10° ESE
Cosmos 468 Rocket 4.1 15:49:50 10° NNW 15:54:54 51° NE 15:58:05 22° ESE
NOSS 2-3 (D) 4.4 15:49:32 10° WNW 15:55:10 84° NNE 16:00:21 20° ESE
Cosmos 2251 Rocket 3.5 15:50:01 10° SSW 15:55:17 68° ESE 15:58:23 25° NE
Envisat 2.9 15:50:47 10° SSE 15:55:52 88° ENE 16:01:00 10° NNW
Cosmos 1782 Rocket 3.4 15:51:39 10° NNW 15:56:04 86° ENE 16:00:24 10° SSE
SMAP 3.7 15:51:55 10° S 15:56:31 59° WSW 16:01:10 10° NNW
Cosmos 2263 4.2 15:51:14 10° NW 15:57:03 71° NE 16:02:22 13° SE
NOSS 3-1 (A) 3.8 15:50:29 10° WNW 15:57:16 90° SSW 16:04:03 15° ESE
NOSS 3-4 (A) 3.5 15:53:17 10° WSW 15:59:30 83° SSE 16:03:18 28° ENE
NOSS 3-4 (C) 3.5 15:53:24 10° WSW 15:59:37 83° SSE 16:03:24 28° ENE
Transit 2A Rocket 4.4 15:55:22 10° SW 15:59:46 86° SE 16:01:28 36° ENE
Cosmos 1417 Rocket 4.4 15:53:40 10° NNW 15:59:47 63° ENE 16:05:53 10° SSE
H-2A R/B 3.4 15:56:14 10° S 15:59:51 53° WSW 16:03:31 10° NNW
Cosmos 2315 Rocket 4.5 15:54:56 10° N 16:00:48 37° ENE 16:04:10 22° ESE
PSLV R/B 3.8 15:59:20 23° NNE 16:01:56 76° ESE 16:06:04 10° SSW
CSL-04 Debris 4.1 15:58:10 10° SE 16:03:34 64° ENE 16:08:56 10° NNW
ARGOS 4.2 16:03:50 26° NE 16:03:50 26° NE 16:07:58 10° N
Cosmos 407 Rocket 4.2 16:00:12 10° SSE 16:04:48 32° ESE 16:05:17 31° E
Meteor 1-27 Rocket 3.8 15:59:05 10° SSW 16:04:56 86° ESE 16:10:54 10° NNE
Okean 2 Rocket 3.0 16:03:08 10° N 16:07:35 60° ENE 16:12:03 10° SSE
Cosmos 1666 3.7 16:04:26 10° NNW 16:08:03 46° W 16:11:38 10° S
NOSS 2-2 (C) 3.7 16:04:07 10° W 16:08:17 73° N 16:10:16 37° ENE
NOAA 12 4.4 16:03:34 10° S 16:08:51 70° WSW 16:14:09 10° NNW
Cosmos 2208 Rocket 4.4 16:04:26 10° NNW 16:09:41 46° NE 16:11:28 34° E
Sich 1 Rocket 3.5 16:06:42 10° NNW 16:11:10 90° WSW 16:15:34 10° SSE
Cosmos 1862 Rocket 3.7 16:07:22 10° SSW 16:11:46 73° WNW 16:15:21 16° N
COSMOS 2428 2.8 16:08:09 10° SW 16:13:52 78° NW 16:17:04 28° NE
Cosmos 1703 Rocket 3.6 16:10:57 10° S 16:15:22 61° E 16:17:05 35° NNE
Meteor 2-9 Rocket 4.2 16:11:00 10° NNW 16:16:56 76° ENE 16:22:47 10° SSE
Cosmos 1814 Rocket 4.4 16:12:29 10° NNW 16:17:32 42° NE 16:18:24 39° ENE
H-2A R/B 3.1 16:20:03 26° NNE 16:20:03 26° NNE 16:23:08 10° N
COSMOS 2455 3.3 16:16:52 10° W 16:22:47 53° NNW 16:25:17 33° NE
Cosmos 1627 Rocket 4.4 16:16:47 10° S 16:22:50 67° E 16:28:59 10° NNE
Cosmos 2195 Rocket 4.4 16:19:00 10° S 16:25:15 73° E 16:31:35 10° NNE
Cosmos 1570 Rocket 4.0 16:20:30 10° NNW 16:25:43 57° NE 16:27:07 43° E
Cosmos 1263 4.3 16:25:43 10° SSW 16:28:36 76° WSW 16:28:36 76° WSW
NOSS 2-2 (E) 3.9 16:24:51 10° W 16:29:13 70° N 16:30:41 46° ENE
NOAA 11 4.1 16:23:56 10° SSE 16:29:24 73° ENE 16:34:55 10° NNW
RESURS DK-1 2.7 16:27:43 10° WSW 16:31:50 62° NW 16:32:45 47° NNE
Cosmos 1939 Rocket 3.5 16:33:27 41° N 16:33:27 41° N 16:36:10 10° NNW
Cosmos 2322 4.3 16:26:55 10° WSW 16:32:30 52° NNW 16:35:14 29° NNE
SeaSat 1 2.5 16:33:09 50° E 16:34:02 58° NE 16:38:53 10° NW
Meteor 1-18 Rocket 4.2 16:28:46 10° S 16:34:16 55° E 16:35:59 40° NE
Cosmos 2360 Rocket 3.1 16:28:53 10° W 16:34:18 42° NNW 16:36:51 27° NNE
YAOGAN 6 3.1 16:31:15 10° S 16:34:48 60° WSW 16:38:26 10° NNW
Cosmos 1655 Rocket 4.2 16:30:36 10° SSE 16:36:33 47° E 16:38:32 35° NE
Cosmos 1092 Rocket 4.0 16:30:48 10° SSW 16:37:05 88° W 16:43:22 10° NNE
ATLAS 2AS CENTAUR R/B 3.0 16:29:31 10° WSW 16:37:38 80° NNW 16:41:09 37° ENE
Cosmos 2369 Rocket 2.5 16:32:02 10° NW 16:37:38 67° SW 16:43:14 10° SSE
Cosmos 2242 Rocket 4.0 16:34:05 10° SSW 16:38:39 65° WNW 16:41:37 22° N
Ariane Rocket 2.9 16:37:50 47° ESE 16:38:59 60° ENE 16:43:59 10° NNW
Cosmos 1980 Rocket 3.2 16:36:43 10° WNW 16:41:50 32° N 16:43:00 29° NNE
Cosmos 1743 3.8 16:38:55 10° NNW 16:42:38 46° W 16:46:22 10° S
Cosmos 1656 Rocket 3.5 16:37:20 10° NW 16:42:48 83° NE 16:44:45 42° SE
Cosmos 1763 Rocket 3.3 16:39:10 10° NNW 16:44:17 77° NE 16:45:30 52° SE
CZ-2D R/B 4.3 16:46:04 35° NNW 16:46:04 35° NNW 16:48:21 10° NNW
COSMO-SKYMED 1 3.3 16:47:07 39° SSE 16:47:07 39° SSE 16:50:03 10° S
Meteor 2-13 Rocket 4.5 16:41:37 10° SSE 16:47:27 51° E 16:48:02 49° ENE
Cosmos 1300 Rocket 3.4 16:44:34 10° NNW 16:48:56 87° WSW 16:50:39 36° S
Okean 1-7 3.0 16:45:17 10° SSW 16:49:41 86° WNW 16:50:27 60° N
Lacrosse 5 rocket 2.1 16:46:38 10° WSW 16:50:16 41° S 16:50:16 41° S
SL-16 R/B 2.2 16:45:19 10° SSW 16:50:51 55° ESE 16:51:11 54° ESE
SL-16 R/B 4.5 16:48:12 10° NNE 16:52:27 20° NNW 16:56:41 10° WNW
Cosmos 2344 4.3 16:44:34 10° WNW 16:53:15 73° SW 17:03:37 15° SE
Okean-O 4.3 16:49:22 10° SSW 16:53:25 34° W 16:57:30 10° NNW
USA 215 3.6 16:51:47 40° ESE 16:53:28 48° SSE 16:59:46 10° SW
SL-4 R/B 4.0 16:52:14 10° SW 16:54:59 19° S 16:55:22 18° S
YAOGAN 1 3.0 16:53:41 10° S 16:57:59 60° WSW 17:02:19 10° NNW
Cosmos 2237 Rocket 2.2 16:53:28 10° SW 16:59:11 81° NW 17:00:46 50° NNE
COBE Rocket 4.4 16:57:58 23° N 17:00:43 55° WNW 17:05:17 10° SW
Cosmos 1190 Rocket 4.1 16:55:52 10° SSW 17:00:22 56° SSE 17:00:22 56° SSE
S3M 4.1 16:56:03 10° NNW 17:02:18 76° W 17:08:26 10° S
Okean 1 4.4 16:58:42 10° SSW 17:01:10 37° SSW 17:01:10 37° SSW
Cosmos 2322 Rocket 3.3 16:58:31 10° WNW 17:03:36 33° N 17:04:50 30° NNE
Cosmos 1943 Rocket 3.2 16:58:27 10° NW 17:03:49 44° WSW 17:09:06 10° S
Aureole 1 Rocket 4.1 17:01:53 10° SW 17:03:35 30° SW 17:03:35 30° SW
Cosmos 2333 Rocket 2.8 16:59:55 10° WSW 17:05:33 51° NNW 17:07:26 37° NNE
Resurs 01 Rocket 4.1 17:10:38 11° N 17:10:38 11° N 17:10:52 10° N
Cosmos 2219 Rocket 2.8 17:02:04 10° WSW 17:07:34 49° NNW 17:09:17 37° NNE
Cosmos 1697 Rocket 3.5 17:03:50 10° NW 17:08:53 36° NNE 17:08:53 36° NNE
Cosmos 614 Rocket 3.9 17:05:36 10° SSW 17:10:13 70° S 17:10:13 70° S
Meteor 1-15 Rocket 4.1 17:06:11 10° NNW 17:11:32 68° NE 17:11:32 68° NE
Cosmos 192 4.3 17:08:13 10° NW 17:13:13 78° WSW 17:13:33 74° SSW
Cosmos 841 Rocket 3.4 17:08:47 10° NNW 17:13:37 73° N 17:13:37 73° N
Cosmos 405 Rocket 3.9 17:10:43 10° NNW 17:13:31 38° WNW 17:13:31 38° WNW
SL-16 R/B 3.3 17:09:12 10° WNW 17:14:18 32° N 17:15:04 31° N
CZ-4B R/B 4.4 17:12:54 10° NNW 17:14:28 13° NW 17:16:01 10° WNW
CZ-4 R/B 2.9 17:12:27 10° SSW 17:16:01 34° W 17:19:33 10° NNW
Cosmos 2151 Rocket 4.1 17:14:28 10° NNW 17:18:49 56° W 17:19:54 43° SSW
NOSS 2-2 (D) 4.0 17:16:52 10° WNW 17:20:59 69° NNW 17:20:59 69° NNW
Cosmos 1656 4.4 17:17:06 10° NW 17:21:25 39° N 17:21:25 39° N
Meteor 1-19 Rocket 4.2 17:20:15 10° SSW 17:25:02 69° S 17:25:02 69° S
Lacrosse 4 Rocket 2.5 17:23:29 10° NW 17:26:19 41° WNW 17:26:19 41° WNW
NOSS 0 Rocket 4.2 17:23:05 10° WSW 17:29:17 63° NW 17:30:39 51° NNE
Cosmos 1980 4.0 17:25:36 10° WSW 17:31:13 59° NW 17:32:00 54° N
Cosmos 540 Rocket 3.8 17:26:22 10° NW 17:30:28 57° NNW 17:30:28 57° NNW
Cosmos 2026 Rocket 4.4 17:26:55 10° SSW 17:32:53 58° WNW 17:38:42 11° N
Cosmos 1140 Rocket 4.3 17:29:38 10° SSW 17:32:57 41° SSW 17:32:57 41° SSW
ARGOS 4.1 17:45:21 39° NNW 17:45:21 39° NNW 17:48:41 10° NNW
Cosmos 407 Rocket 4.0 17:41:13 10° SW 17:45:31 58° WSW 17:45:31 58° WSW
Cosmos 2315 Rocket 4.1 17:40:36 10° NNW 17:46:57 73° W 17:49:06 43° S
Exosat Rocket 4.4 17:42:25 10° WSW 17:47:15 46° NNW 17:47:39 45° NNW
NOSS 3-4 (A) 3.6 17:44:18 10° W 17:50:42 75° N 17:50:44 75° N
NOSS 3-4 (C) 3.6 17:44:24 10° W 17:50:48 75° N 17:50:50 75° N
MOS 1 4.4 17:50:44 69° WSW 17:50:53 69° WSW 17:56:37 10° NNW
H-2A R/B 3.5 18:00:41 28° NNW 18:00:41 28° NNW 18:02:59 10° NNW
COSMOS 2428 3.7 17:53:36 10° W 17:58:55 38° NNW 17:59:05 38° NNW
COSMOS 2455 3.6 18:03:41 10° WNW 18:08:25 46° NNW 18:08:25 46° NNW
SeaSat 1 3.7 18:12:56 39° W 18:12:56 39° W 18:16:30 10° NW
Ariane Rocket 4.4 18:18:02 35° W 18:18:16 35° W 18:22:56 10° NNW
Cosmos 2360 Rocket 3.7 18:14:32 10° WNW 18:18:37 30° NNW 18:18:37 30° NNW
Cosmos 1980 Rocket 3.7 18:21:35 10° NW 18:24:45 30° NNW 18:24:45 30° NNW
ATLAS 2AS CENTAUR R/B 3.0 18:21:09 10° WNW 18:28:35 74° NW 18:28:35 74° NW
Lacrosse 5 rocket 4.4 18:25:30 10° W 18:25:54 12° W 18:25:54 12° W
SL-16 R/B 3.5 18:29:28 10° WSW 18:33:05 37° W 18:33:05 37° W
USA 215 4.0 18:39:08 45° SW 18:39:08 45° SW 18:43:41 10° WSW
Cosmos 2237 Rocket 3.7 18:38:40 10° W 18:42:36 33° NW 18:42:36 33° NW
Cosmos 2322 Rocket 4.0 18:43:51 10° NW 18:46:39 25° NNW 18:46:39 25° NNW
Cosmos 2333 Rocket 3.9 18:45:47 10° WNW 18:49:26 29° NW 18:49:26 29° NW
Cosmos 2219 Rocket 3.9 18:47:39 10° WNW 18:51:01 27° NW 18:51:01 27° NW
Cosmos 1697 Rocket 4.5 18:48:12 10° NW 18:50:37 26° NW 18:50:37 26° NW
SL-16 R/B 4.1 18:54:26 10° NW 18:56:55 24° NNW 18:56:55 24° NNW
ATLAS 2AS CENTAUR R/B 4.5 20:12:29 10° WNW 20:16:01 29° WNW 20:16:01 29° WNW
